Home > Time Zones > World Clock > Weather > Macau > Macau > Past weeks

Flag for Macau Weather past 2 weeks in Macau, Macau

Now
63 °F

Scattered clouds.


Feels Like: 63 °F
Forecast: 66 / 71 °F
Wind: 7 mph from East

Location: Taipa

Current Time: Mar 2, 2015 at 9:25:01 AM

Latest Report: Mar 2, 2015 at 9:00 AM


Visibility: N/A

Pressure: 30.09 "Hg

Humidity: 83%

Dew point: 57 °F

Location of MacauLocation

Historic Weather in Macau — Graph

°F

Macau temperature yesterday

Maximum temperature yesterday: 68 °F (at 12:30 AM)
Minimum temperature yesterday: 61 °F (at 6:30 AM)
Average temperature yesterday: 64 °F

Past Weeks' High & Low Weather Summary

 TemperatureHumidityPressure
High72 °F (Feb 16, 1:00 PM)100% (Feb 16, 6:00 AM)30.18 "Hg (Feb 16, 6:00 AM)
Low61 °F (Feb 17, 6:30 AM)64% (Mar 1, 4:30 PM)29.86 "Hg (Feb 24, 4:30 PM)
Average65 °F90%30.00 "Hg
* Reported Feb 15 7:00 AM — Mar 2 7:30 AM, Macau, Weather by CustomWeather, © 2015

Note: Actual official high and low records may vary slightly from our data, if they occured in-between our weather recording intervals... More about our weather records

Advertising

Macau weather history for previous 24 hours

 ConditionsComfort  
Time TempWeatherWind HumidityBarometerVisibility
7:30 AM
Mon, Mar 2
63 °FScattered clouds.8 mph73%30.07 "HgN/A
7:00 AM63 °FScattered clouds.7 mph77%30.04 "HgN/A
6:30 AM63 °FPassing clouds.7 mph77%30.04 "HgN/A
6:00 AM63 °FPassing clouds.6 mph73%30.04 "HgN/A
5:30 AM63 °FPassing clouds.7 mph73%30.04 "HgN/A
5:00 AM63 °FPassing clouds.6 mph73%30.04 "HgN/A
4:30 AM63 °FPassing clouds.7 mph73%30.04 "HgN/A
4:00 AM63 °FPassing clouds.8 mph73%30.04 "HgN/A
3:00 AM63 °FPassing clouds.10 mph73%30.07 "HgN/A
2:30 AM63 °FPassing clouds.12 mph68%30.07 "HgN/A
2:00 AM63 °FPassing clouds.10 mph73%30.09 "HgN/A
1:30 AM64 °FPassing clouds.12 mph68%30.09 "HgN/A
1:00 AM64 °FPassing clouds.12 mph68%30.09 "HgN/A
12:30 AM64 °FPassing clouds.10 mph64%30.12 "HgN/A
12:00 AM64 °FPassing clouds.10 mph64%30.12 "HgN/A
11:00 PM
Sun, Mar 1
64 °FPassing clouds.13 mph64%30.12 "HgN/A
10:30 PM64 °FPassing clouds.10 mph64%30.12 "HgN/A
10:00 PM64 °FPassing clouds.12 mph64%30.12 "HgN/A
9:30 PM64 °FPassing clouds.10 mph64%30.12 "HgN/A
9:00 PM64 °FPassing clouds.10 mph64%30.09 "HgN/A
8:30 PM64 °FPassing clouds.10 mph64%30.09 "HgN/A
8:00 PM64 °FPassing clouds.12 mph64%30.09 "HgN/A
7:30 PM64 °FPassing clouds.12 mph64%30.07 "HgN/A
7:00 PM64 °FPassing clouds.13 mph64%30.07 "HgN/A
6:30 PM64 °FPassing clouds.12 mph64%30.07 "HgN/A
6:00 PM64 °FScattered clouds.13 mph64%30.07 "HgN/A
5:30 PM64 °FScattered clouds.14 mph64%30.07 "HgN/A
5:00 PM64 °FScattered clouds.15 mph64%30.07 "HgN/A
4:30 PM66 °FScattered clouds.15 mph64%30.07 "HgN/A
4:00 PM64 °FScattered clouds.13 mph68%30.07 "HgN/A
3:30 PM64 °FScattered clouds.14 mph68%30.07 "HgN/A
3:00 PM64 °FScattered clouds.15 mph68%30.07 "HgN/A
2:30 PM64 °FScattered clouds.15 mph68%30.07 "HgN/A
2:00 PM64 °FScattered clouds.16 mph68%30.09 "HgN/A
1:30 PM64 °FScattered clouds.18 mph68%30.09 "HgN/A
1:00 PM64 °FScattered clouds.18 mph68%30.12 "HgN/A
12:30 PM63 °FScattered clouds.18 mph73%30.15 "HgN/A
12:00 PM63 °FScattered clouds.17 mph77%30.15 "HgN/A
11:30 AM63 °FScattered clouds.18 mph73%30.18 "HgN/A
11:00 AM63 °FScattered clouds.22 mph73%30.18 "HgN/A
10:30 AM61 °FScattered clouds.22 mph77%30.18 "HgN/A
10:00 AM63 °FScattered clouds.24 mph73%30.18 "HgN/A
9:30 AM63 °FScattered clouds.22 mph77%30.15 "HgN/A
9:00 AM63 °FScattered clouds.20 mph77%30.15 "HgN/A
Weather by CustomWeather, © 2015

See weather overviewHow to use our weather pages